{"data":{"norad_id":68986,"intl_designator":"2026-100G","name":"IRIDE-MS2-HEO-14","alt_names":[],"object_type":"PAYLOAD","status":"ACTIVE","operator":null,"country":"IT","launch_date":"2026-05-03","launch_site_code":"AFWTR","launch_vehicle":null,"mission":null,"orbit_class":"UNKNOWN","rcs_meters":null,"size_class":null,"mass_kg":null,"dimensions":null,"purposes":[],"wikipedia_slug":null,"has_3d_model":false,"image_url":null,"decayed_at":null,"tle_current":{"epoch":"2026-09-19T23:46:34.934304Z","epoch_age_seconds":63415,"freshness":"FRESH","line1":"1 68986U 26100G   26262.99068211  .00001022  00000+0  10753-3 0  9993","line2":"2 68986  97.7227 158.6021 0004239 126.2960 233.8651 14.91517691 20835","mean_motion":14.91517691,"eccentricity":0.0004239,"inclination_deg":97.7227,"raan_deg":158.6021,"arg_perigee_deg":126.296,"mean_anomaly_deg":233.8651,"bstar":0.00010753,"rev_number":2083,"period_min":96.545955082473,"perigee_km":590.24738516708,"apogee_km":596.15768682569,"semimajor_km":6971.3395359964,"source":"CELESTRAK","updated_at":"2026-09-20T09:00:24.599350Z"}}}